EW4210 Weather Reports


time (UTC)temp
F
wind
direction
speed
knots
gust
knots
rain 1hr
in
rain 24hr
in
rain mn
in
humidity
%
barometer
mb
20260507174510 66 86 0.9 4.3 0.00 0.11 0.00 57 1017.4
20260507173059 65 347 0.0 2.6 0.00 0.17 0.00 55 1017.8
20260507171531 64 12 0.9 4.3 0.00 0.17 0.00 55 1018.1
20260507170018 64 227 0.9 3.5 0.00 0.17 0.00 51 1018.3
20260507164603 64 37 0.9 2.6 0.00 0.17 0.00 55 1018.4
20260507163033 64 110 0.9 3.5 0.00 0.17 0.00 54 1018.6
20260507161520 63 333 0.0 2.6 0.00 0.17 0.00 56 1018.7
20260507160051 62 321 0.0 3.5 0.00 0.17 0.00 63 1018.8
20260507154537 61 298 1.7 3.5 0.00 0.17 0.00 65 1018.8
20260507153012 61 315 1.7 2.6 0.00 0.17 0.00 68 1018.8
20260507151548 60 244 0.0 1.7 0.00 0.17 0.00 76 1018.9
20260507150025 59 311 0.0 3.5 0.00 0.17 0.00 73 1018.8
20260507144510 58 350 0.0 2.6 0.00 0.17 0.00 74 1018.8
20260507143046 58 34 0.9 1.7 0.00 0.17 0.00 74 1018.7
20260507141522 56 15 0.0 0.0 0.00 0.17 0.00 79 1018.6
20260507140056 56 296 0.0 0.9 0.00 0.17 0.00 80 1018.2
20260507140009 55 296 0.0 0.9 0.00 0.17 0.00 80 1018.3
20260507134547 54 348 0.0 1.7 0.00 0.17 0.00 81 1018.4
20260507133016 53 38 0.0 1.7 0.00 0.17 0.00 83 1018.6
20260507131607 51 348 0.9 2.6 0.00 0.17 0.00 85 1018.6
20260507130041 50 348 0.0 1.7 0.00 0.17 0.00 88 1018.5
20260507124520 50 325 0.0 1.7 0.00 0.17 0.00 89 1018.3
20260507123011 49 344 0.0 2.6 0.00 0.17 0.00 91 1018.4
20260507121540 49 337 0.9 2.6 0.00 0.17 0.00 91 1018.3
20260507120022 48 337 0.9 2.6 0.00 0.17 0.00 92 1018.2
20260507114503 48 328 0.0 0.0 0.00 0.17 0.00 93 1017.7
20260507113036 48 328 0.0 0.9 0.00 0.17 0.00 93 1017.1
20260507111522 48 328 0.0 0.0 0.00 0.17 0.00 93 1017.2
20260507110105 48 328 0.0 0.0 0.00 0.17 0.00 94 1017.1
20260507104538 48 328 0.0 0.0 0.00 0.17 0.00 95 1017.0
20260507103023 48 328 0.0 0.0 0.00 0.18 0.00 95 1016.8
20260507101601 48 328 0.0 0.0 0.00 0.18 0.00 95 1016.8
20260507101507 48 328 0.0 0.0 0.00 0.18 0.00 95 1016.8
20260507100050 48 328 0.0 0.0 0.00 0.18 0.00 94 1016.6
20260507094526 49 328 0.0 0.0 0.00 0.18 0.00 94 1016.5
20260507093006 49 328 0.0 0.0 0.00 0.22 0.00 93 1016.4
20260507091602 50 328 0.0 0.0 0.00 0.22 0.00 93 1016.5
20260507090036 50 328 0.0 0.0 0.00 0.22 0.00 94 1016.7
20260507084503 51 328 0.0 0.0 0.00 0.22 0.00 94 1016.6
20260507083044 51 328 0.0 0.0 0.00 0.22 0.00 94 1016.4
20260507081530 51 140 0.0 0.0 0.00 0.22 0.00 94 1016.4
20260507080005 52 140 0.0 0.0 0.00 0.22 0.00 94 1016.4
20260507074546 52 140 0.0 0.0 0.00 0.22 0.00 95 1016.2
20260507073025 52 140 0.0 0.0 0.00 0.22 0.00 95 1016.2
20260507071511 52 140 0.0 0.0 0.00 0.22 0.00 95 1016.3
20260507070059 52 140 0.0 0.0 0.00 0.22 0.00 95 1016.3
20260507064532 53 140 0.0 0.0 0.00 0.22 0.00 95 1016.2
20260507063016 53 140 0.0 0.0 0.00 0.22 0.22 95 1016.3
20260507061551 53 140 0.0 0.0 0.00 0.22 0.22 95 1016.4
20260507060037 54 140 0.0 0.0 0.00 0.22 0.22 95 1016.4
20260507054513 54 140 0.0 0.0 0.00 0.22 0.22 96 1016.4
20260507053007 54 140 0.0 0.9 0.00 0.30 0.22 96 1016.2
20260507051546 54 140 0.0 0.0 0.00 0.30 0.22 95 1016.4
20260507050039 53 140 0.0 0.9 0.00 0.30 0.22 95 1016.5
20260507044507 53 140 0.0 0.0 0.00 0.30 0.22 96 1016.4
20260507043047 53 140 0.0 0.9 0.00 0.30 0.22 95 1016.4
20260507041530 53 140 0.0 0.0 0.00 0.30 0.22 96 1016.3
20260507040006 53 140 0.0 0.0 0.00 0.30 0.22 96 1016.3
20260507034556 53 140 0.0 0.0 0.00 0.30 0.22 96 1016.4
20260507033039 53 140 0.0 0.9 0.00 0.30 0.22 96 1016.3
20260507031517 53 140 0.0 0.9 0.00 0.30 0.22 95 1016.2
20260507030049 53 140 0.0 0.0 0.00 0.30 0.22 95 1015.8
20260507024547 53 140 0.0 0.0 0.00 0.30 0.22 95 1015.8
20260507023009 53 140 0.0 0.0 0.00 0.30 0.22 95 1015.4
20260507021551 53 140 0.0 0.9 0.00 0.30 0.22 95 1015.6
20260507020029 53 140 0.0 0.0 0.00 0.30 0.22 94 1015.4
20260507014524 53 140 0.0 0.0 0.00 0.30 0.22 94 1015.0
20260507013050 53 140 0.0 0.9 0.00 0.30 0.22 94 1014.7
20260507011541 53 140 0.0 0.0 0.00 0.30 0.22 93 1014.7
20260507010018 53 140 0.0 0.9 0.00 0.30 0.22 93 1014.8
20260507004553 53 140 0.0 0.9 0.00 0.30 0.22 92 1014.9
20260507003034 54 140 0.0 0.0 0.00 0.30 0.22 92 1014.9
20260507001520 54 113 0.0 1.7 0.00 0.30 0.22 92 1014.9
20260507000005 54 113 0.0 1.7 0.00 0.30 0.22 91 1014.9
20260506234546 54 113 0.0 0.9 0.00 0.30 0.22 91 1014.8
20260506233028 54 113 0.0 1.7 0.00 0.30 0.22 91 1014.9
20260506231510 54 113 0.0 2.6 0.00 0.30 0.22 91 1015.1
20260506230050 54 130 0.9 2.6 0.00 0.30 0.22 93 1015.1
20260506224532 53 57 0.0 0.0 0.00 0.30 0.22 93 1014.3
20260506223014 53 57 0.0 0.0 0.00 0.30 0.22 93 1014.6
20260506221553 53 57 0.0 0.0 0.01 0.30 0.22 92 1014.6
20260506220046 53 57 0.0 0.9 0.01 0.30 0.22 93 1014.4
20260506214522 53 57 0.0 1.7 0.01 0.30 0.22 93 1014.1
20260506213006 53 57 0.9 2.6 0.01 0.30 0.22 93 1014.0
20260506211551 53 43 0.9 1.7 0.00 0.28 0.21 95 1014.3
20260506210030 52 43 0.0 1.7 0.01 0.28 0.21 94 1014.2
20260506204508 52 66 0.0 1.7 0.02 0.28 0.21 95 1014.2
20260506203052 52 34 0.0 1.7 0.03 0.28 0.21 95 1014.1
20260506201530 52 78 0.9 2.6 0.05 0.28 0.21 95 1014.2
20260506200020 52 26 0.9 2.6 0.05 0.28 0.20 95 1014.6
20260506194508 52 102 0.9 2.6 0.05 0.27 0.19 95 1015.4
20260506193049 51 115 0.9 2.6 0.04 0.26 0.18 95 1016.0
20260506191532 51 74 0.0 1.7 0.03 0.24 0.16 95 1016.4
20260506190007 51 38 0.9 2.6 0.02 0.23 0.15 94 1015.3
20260506184553 51 67 0.0 1.7 0.02 0.22 0.14 94 1015.7
20260506183032 51 67 0.0 0.0 0.08 0.22 0.14 94 1016.4
20260506181514 51 67 0.0 0.9 0.08 0.21 0.13 93 1016.4
20260506180058 51 67 1.7 2.6 0.08 0.21 0.13 93 1015.7